Wind_Speed
6 13 19 18 16 15 17 16 14 13 12 10 8 8 6 5 5 4 3 2 2 3 5 4 4 5 6 5 4 5 5 7 7 7 7 8 9 9 7 6 6 6 6 7 8 8 8 8 9 9 10 10 9 9 9 9 8 7 6 6 5 5 5 6 7 6 6 6 7 6 6 6 7 7 6 6 7 6 6 7 7 7 6 6 4
5 12 17 18 17 16 17 17 14 13 12 10 9 9 7 5 5 4 2 1 2 2 3 3 2 3 5 5 4 4 5 6 6 7 7 7 7 8 6 5 4 4 5 5 7 7 7 7 8 9 9 10 8 8 8 8 7 7 7 7 7 7 7 7 7 7 6 6 7 7 7 7 7 7 7 7 7 6 6 6 7 7 6 6 5
5 11 16 17 16 16 17 17 15 14 12 11 10 9 8 6 5 4 3 2 2 0 2 2 1 1 3 4 3 3 5 6 6 6 6 6 6 7 6 5 3 3 4 5 6 6 6 6 7 8 9 9 7 6 6 6 6 6 6 6 6 6 7 7 7 7 7 7 8 8 8 7 7 7 7 7 6 6 6 5 5 6 7 6 5
5 10 14 16 16 16 17 16 15 14 13 12 10 9 8 7 6 4 3 3 3 1 2 1 2 1 1 4 4 3 5 6 6 6 5 5 5 5 5 4 3 3 3 4 6 6 6 6 6 7 8 8 7 5 5 5 5 5 5 5 5 6 6 6 6 6 6 6 7 7 7 6 6 6 6 6 5 5 5 4 4 4 6 6 6
5 9 12 15 16 16 16 15 15 14 13 12 11 10 9 8 6 5 4 4 3 2 1 0 2 2 1 2 4 4 4 5 7 6 5 4 5 4 3 3 3 2 3 4 5 5 5 6 6 6 6 6 6 5 4 3 3 3 4 4 4 5 5 5 4 4 4 4 6 7 5 5 5 5 6 6 5 4 3 3 3 3 3 4 4
5 8 10 14 16 16 15 15 14 14 13 12 11 10 9 8 7 6 5 5 4 4 1 1 2 2 1 2 3 3 4 5 6 5 5 5 4 3 2 2 2 2 2 3 4 5 5 6 6 6 4 4 4 4 4 4 4 4 4 3 3 4 4 4 4 4 4 4 5 5 4 4 4 4 5 5 5 5 3 2 2 2 2 2 2
6 8 9 12 15 16 16 14 14 14 13 11 11 10 9 9 8 7 6 6 5 4 1 1 2 2 1 2 3 3 3 3 5 5 5 5 5 4 4 2 2 2 1 2 4 6 6 6 7 6 4 3 3 4 4 4 4 4 5 4 4 4 4 5 5 5 5 3 3 3 3 4 3 4 4 4 4 5 4 3 2 1 1 1 0
6 8 9 11 14 15 16 15 14 13 12 11 11 10 10 9 9 8 7 6 5 2 1 0 2 2 2 2 3 3 2 3 4 4 5 6 6 6 5 3 1 1 2 3 5 7 8 6 6 5 4 4 3 4 4 4 4 4 5 5 5 5 5 5 6 7 6 3 1 1 2 3 2 3 3 3 3 3 4 3 2 2 1 2 2
7 8 9 10 12 14 15 15 14 13 12 11 11 10 9 9 9 8 7 6 4 1 2 2 1 3 3 3 3 3 2 2 4 5 6 8 7 6 5 2 1 2 4 5 6 8 8 5 3 4 5 5 5 5 5 4 4 4 5 5 5 4 5 5 5 6 4 3 1 0 2 3 3 1 3 3 4 5 6 6 5 5 4 4 4
7 8 9 10 11 13 15 15 15 14 12 11 11 11 10 10 9 9 8 6 5 3 3 3 2 3 3 3 2 2 1 2 4 6 8 9 9 5 3 1 3 4 6 6 7 9 6 3 3 4 6 7 7 6 6 5 4 4 4 4 4 3 3 3 3 3 2 1 1 0 1 2 3 1 2 4 6 6 6 6 5 4 4 3 2
7 7 9 10 10 11 13 14 14 14 13 12 11 11 11 11 10 9 8 7 6 4 4 5 4 3 3 3 1 1 2 4 5 7 8 9 8 4 2 0 2 4 6 7 8 8 6 4 3 4 6 7 7 6 5 4 4 3 3 2 1 1 1 2 2 2 2 2 1 1 2 3 3 3 2 2 4 5 4 4 4 4 4 3 3
6 7 8 10 10 11 11 13 13 13 13 12 11 11 11 11 10 8 8 7 6 5 4 6 6 4 3 2 1 2 2 3 4 6 7 8 8 4 2 1 2 3 5 5 6 7 8 8 6 5 5 5 5 4 3 3 3 2 1 0 1 2 2 4 4 4 4 4 3 3 3 4 2 3 4 3 3 2 3 3 3 3 3 3 3
6 7 8 9 10 11 11 12 12 12 12 11 10 11 11 10 10 9 8 7 7 5 5 6 6 4 3 1 1 2 2 3 4 5 5 6 7 5 3 2 2 2 2 3 5 8 10 10 7 5 4 4 3 1 1 1 1 1 1 2 2 2 3 3 4 5 5 4 4 3 4 3 2 3 5 4 2 2 3 4 3 2 4 4 5
6 7 8 8 9 10 11 12 12 12 12 11 10 10 10 10 10 9 8 8 7 7 6 5 5 5 4 2 2 2 2 3 4 5 5 5 6 5 3 2 2 3 4 7 7 9 10 8 6 5 4 2 1 1 1 1 1 2 3 2 2 2 3 3 4 4 4 4 4 4 3 2 1 1 2 3 3 3 3 4 4 4 5 6 6
6 6 7 7 8 9 11 12 12 13 12 12 12 11 11 11 11 11 9 8 8 7 7 7 6 5 4 3 3 2 2 4 4 4 4 4 5 4 4 3 3 4 7 8 9 11 11 8 6 5 4 2 0 1 2 2 2 3 3 2 2 2 3 3 4 4 4 4 4 4 3 2 3 3 3 2 1 2 3 3 3 4 5 5 6
5 5 5 6 7 8 10 11 12 13 13 14 13 13 13 12 12 12 11 10 9 9 9 8 8 6 5 5 4 4 4 4 5 5 4 4 4 3 4 4 4 6 7 8 10 12 12 10 6 4 3 2 1 2 3 3 3 3 2 2 2 2 3 3 4 4 3 3 3 3 2 2 3 4 4 4 4 3 3 4 4 4 4 5 5
4 3 4 5 6 7 8 10 12 13 14 14 14 14 15 14 13 13 13 12 12 11 10 9 9 7 6 6 6 5 5 5 5 5 6 5 5 4 5 5 5 7 8 9 11 11 12 11 7 4 2 1 1 3 3 4 3 3 2 2 2 2 3 3 3 3 3 3 3 3 2 2 2 3 3 4 5 4 4 4 4 5 4 4 5
3 3 3 4 5 6 7 8 10 12 14 15 15 15 16 15 14 14 14 14 13 13 12 10 10 8 7 7 7 7 7 6 6 7 7 6 6 6 5 7 7 9 10 10 11 12 12 11 9 6 3 1 1 3 4 5 4 4 3 2 1 1 2 3 3 3 3 3 3 3 2 2 2 2 4 5 5 4 4 4 4 4 4 4 4
6 4 4 4 4 5 6 6 8 10 13 15 15 16 16 16 15 15 15 15 15 14 13 11 10 9 8 8 9 9 8 8 8 8 8 8 8 8 8 8 8 10 12 11 12 12 11 10 9 8 5 3 1 2 4 4 4 4 3 3 2 1 2 2 2 2 2 3 3 2 2 3 3 2 3 5 5 5 5 5 4 4 4 5 4
9 7 6 6 6 6 6 6 7 8 10 13 15 15 16 16 16 16 16 16 15 14 13 12 11 11 10 9 10 10 9 9 10 9 9 9 9 10 9 9 9 12 13 13 12 11 10 9 9 8 7 4 2 1 4 4 4 4 3 3 1 1 1 1 1 1 2 2 2 2 2 2 2 2 2 3 4 5 5 5 4 4 5 5 5
12 10 9 9 9 9 8 8 7 7 8 10 13 14 15 16 15 15 15 16 15 14 13 12 11 11 11 10 10 9 9 9 9 10 10 10 10 12 11 10 10 13 15 14 12 10 9 9 10 9 8 6 3 2 3 4 4 4 3 3 2 1 1 0 0 1 1 1 1 1 1 1 2 2 2 2 3 4 5 5 5 5 5 5 5
13 12 11 11 10 10 10 10 9 9 8 9 11 13 14 14 13 13 13 14 14 13 13 12 11 11 11 10 9 9 9 8 9 11 11 10 11 13 13 11 11 13 15 16 15 13 10 8 11 12 10 9 6 3 3 5 5 5 4 3 3 2 2 1 1 1 1 1 1 1 1 1 1 2 2 1 2 3 4 4 5 6 6 5 5
13 13 12 12 12 12 12 12 11 10 9 8 9 11 12 12 13 14 14 14 13 12 13 12 12 12 11 10 10 9 9 8 9 11 11 11 11 13 12 11 11 11 12 14 15 15 11 9 12 13 12 11 8 5 3 5 6 6 5 5 4 3 3 3 2 2 2 2 1 1 1 1 1 1 2 2 1 2 3 4 5 5 5 5 5
12 13 13 13 13 13 14 13 12 11 10 9 8 9 10 11 12 13 14 13 13 12 12 12 12 13 12 11 11 11 10 10 11 11 12 12 11 12 11 11 12 11 11 13 13 13 12 12 13 14 14 13 11 8 4 4 6 7 7 6 5 5 4 4 4 4 3 3 3 2 2 2 1 1 0 1 1 2 3 3 4 5 5 5 5
10 10 11 12 12 13 14 14 14 13 12 10 9 8 8 9 10 11 12 13 12 12 11 11 11 12 13 12 12 12 12 12 11 11 12 13 12 11 10 11 13 12 11 10 10 11 13 15 14 14 15 15 15 12 8 5 5 7 8 8 7 6 5 5 5 5 5 4 4 3 3 2 2 1 1 1 1 1 2 3 4 4 4 4 5
8 7 8 9 10 11 13 15 15 14 12 10 9 8 7 7 8 8 9 10 13 12 12 13 11 10 11 10 9 9 10 11 13 12 11 11 12 11 11 11 12 12 12 10 10 11 14 16 13 15 16 16 17 15 11 8 6 7 8 9 9 8 7 6 6 6 7 6 5 4 4 3 3 2 2 2 1 1 1 2 3 4 4 5 6
5 6 7 8 9 10 10 12 15 15 13 11 9 8 8 7 6 7 6 7 11 11 10 11 11 10 11 11 11 11 10 10 11 12 12 12 11 10 10 10 11 13 14 14 13 13 15 14 9 14 18 17 17 15 13 12 9 9 8 9 10 10 9 9 8 8 8 8 7 6 6 5 4 4 3 3 3 3 3 2 3 4 5 5 5
4 5 5 6 7 7 8 9 13 16 14 12 10 9 9 9 7 7 6 6 9 11 10 10 10 11 11 11 14 16 15 12 10 10 12 13 12 12 10 10 12 14 15 14 14 14 14 10 8 14 18 17 16 14 14 14 12 11 10 10 11 11 12 11 11 10 10 9 9 8 7 7 6 6 5 5 4 4 5 5 4 4 5 5 4
3 3 3 3 4 4 5 7 12 16 16 13 11 10 10 10 9 8 6 6 8 10 11 12 12 12 11 12 14 14 13 13 13 9 9 11 10 11 10 11 13 13 13 13 13 13 11 11 11 13 15 15 15 13 14 16 15 12 11 11 11 11 13 13 13 13 12 11 11 10 9 9 9 8 7 7 7 6 6 6 6 5 4 5 6
1 1 1 1 1 1 3 4 10 15 16 15 13 11 11 8 7 10 9 10 10 9 12 12 13 11 9 11 15 13 9 9 9 8 7 6 8 10 9 9 10 10 10 11 12 12 11 12 14 13 12 12 13 13 13 14 15 13 12 11 11 11 12 13 14 15 14 14 13 13 12 11 10 10 10 9 9 8 8 7 7 7 3 3 5
0 1 1 1 2 1 1 3 8 13 15 15 14 13 13 11 10 12 12 14 14 12 14 14 14 13 9 9 15 17 11 8 7 9 11 9 10 12 10 8 8 9 9 9 10 12 11 11 13 13 10 9 11 11 10 13 15 15 15 14 13 13 13 13 14 15 16 15 15 15 14 14 13 12 12 11 10 10 10 9 8 8 6 6 5
1 1 1 2 3 3 3 4 7 12 14 15 15 15 16 16 15 14 13 15 15 14 14 15 15 16 13 11 14 17 15 12 10 8 11 13 13 13 10 9 8 8 8 9 11 11 10 10 12 12 9 8 8 9 10 12 14 15 15 15 16 16 15 15 15 15 16 17 17 16 16 16 15 14 14 13 12 11 11 11 10 9 8 9 8
2 2 2 2 3 4 5 6 7 10 13 15 15 16 17 17 16 16 14 14 14 13 13 13 12 12 12 10 12 14 14 14 11 7 7 10 10 9 8 8 7 8 9 9 10 10 10 10 12 13 10 9 8 8 8 10 12 12 13 14 16 17 17 17 17 17 17 17 18 18 18 18 17 17 16 15 14 14 13 12 12 11 11 10 10
2 2 3 3 4 5 6 7 8 9 12 13 15 16 16 16 15 15 14 13 12 10 9 8 7 6 6 6 7 9 10 12 10 7 6 7 7 6 7 8 8 9 10 10 10 9 8 8 10 11 10 10 10 9 8 9 11 11 12 13 15 17 17 17 17 17 18 18 18 19 19 20 20 19 18 17 17 16 15 14 14 13 13 12 12
3 3 3 3 4 5 6 7 8 9 10 12 14 14 14 14 13 12 11 11 10 8 7 6 5 6 5 5 5 6 8 8 8 7 7 8 8 8 8 8 7 7 8 9 9 8 7 7 9 11 11 11 11 11 10 10 11 11 12 13 14 16 17 17 17 17 17 17 18 18 19 19 20 20 21 20 20 19 18 17 16 15 15 14 13
4 4 4 4 4 5 7 8 8 8 9 11 11 12 12 12 11 10 9 9 8 7 6 5 5 6 6 6 6 5 4 3 4 6 7 8 7 7 8 8 8 7 8 8 7 8 9 9 10 12 13 13 13 13 13 11 11 13 14 15 16 16 16 17 18 17 17 17 17 18 18 18 19 19 19 20 21 21 21 21 20 19 18 17 16
6 7 7 6 7 7 8 9 10 9 9 10 10 10 10 10 9 9 8 7 7 6 5 4 3 3 3 3 3 2 0 1 1 2 3 3 2 2 3 4 5 6 8 8 8 9 10 9 9 12 14 14 13 13 13 12 13 15 16 16 15 16 17 17 17 17 17 17 18 18 18 18 18 18 18 18 19 20 21 22 22 22 21 21 20
7 8 8 8 10 10 10 10 11 11 10 10 10 9 9 10 10 10 9 8 7 6 6 5 4 4 4 4 4 3 3 3 2 1 1 2 2 2 2 2 2 3 4 6 6 6 7 8 8 9 11 11 11 11 11 12 13 15 15 14 15 16 17 17 17 18 18 19 19 18 18 17 17 17 17 17 17 18 19 20 21 23 23 23 23
8 9 10 11 12 12 11 10 12 12 11 10 9 9 10 9 9 10 10 8 7 7 6 4 3 4 4 3 3 2 1 2 2 2 1 1 2 3 3 3 4 4 5 5 6 6 7 9 9 10 11 12 12 13 14 14 15 15 16 17 17 17 18 18 18 18 18 18 18 17 17 16 16 16 15 15 15 16 17 18 18 20 21 23 24
10 10 11 12 14 14 13 12 13 13 13 11 10 10 10 9 10 9 9 9 8 7 5 4 3 3 4 3 1 1 1 1 1 1 1 2 2 2 3 4 4 5 5 5 6 7 7 9 10 11 12 12 13 14 15 16 17 18 19 19 18 18 17 16 16 16 16 16 16 16 14 14 14 14 14 14 13 14 14 15 15 16 18 19 21
11 11 12 13 14 14 14 14 14 13 12 10 9 9 9 9 9 8 8 9 8 5 4 4 4 4 4 3 3 3 3 3 3 4 4 4 4 4 4 4 4 5 5 6 6 7 8 8 9 10 9 10 11 12 14 15 15 17 18 18 17 16 15 14 14 13 13 13 13 13 12 13 13 14 14 14 14 14 14 15 15 15 16 17 18
11 12 12 14 14 14 14 14 14 11 10 9 8 7 7 7 7 8 8 9 9 8 9 11 11 11 11 10 10 10 9 8 9 9 10 10 10 9 9 9 9 10 10 10 10 10 9 9 10 10 11 12 12 14 15 15 15 17 18 17 14 15 16 14 9 7 10 13 12 12 13 13 14 14 14 15 16 17 17 17 17 18 18 18 19
13 13 13 15 15 15 14 14 12 9 9 10 9 9 9 9 10 12 12 14 15 15 16 17 17 17 16 16 16 15 14 14 14 13 13 13 13 12 12 13 13 12 12 11 11 10 11 11 11 11 12 13 13 14 15 15 16 16 16 14 12 13 12 9 9 13 14 11 9 10 11 13 15 16 17 18 19 20 21 21 22 22 22 23 22
14 14 15 15 15 15 14 13 12 11 12 14 14 15 16 16 16 17 17 18 20 20 20 19 18 17 18 17 17 17 16 15 15 14 14 14 14 14 14 14 13 13 12 12 12 12 13 13 13 13 13 13 14 16 17 17 18 16 15 12 11 10 5 10 21 22 14 9 11 14 14 16 18 18 19 20 21 21 22 23 24 25 26 27 27
16 16 16 16 16 16 16 16 17 18 19 19 20 20 20 20 20 19 19 20 20 19 18 18 17 16 16 16 16 15 15 14 13 13 13 13 13 12 13 12 12 12 12 12 13 13 13 13 14 14 14 15 15 16 17 17 18 17 16 12 8 7 8 18 23 16 13 17 20 21 22 21 21 20 20 20 20 20 20 21 21 22 24 25 27
18 18 19 19 20 21 22 22 23 23 23 23 22 21 20 19 18 18 18 18 18 17 17 16 15 15 14 14 13 12 11 11 10 10 10 10 9 9 10 10 10 11 11 12 12 12 13 13 14 14 14 14 14 14 15 16 17 16 16 13 9 8 14 20 17 13 19 21 21 24 24 24 24 24 23 22 21 20 20 20 20 20 20 21 22
22 23 24 24 25 25 25 25 25 25 24 23 21 20 19 18 16 16 15 14 14 15 15 14 13 13 12 10 9 9 8 7 7 7 7 7 7 7 8 9 9 10 10 11 11 11 12 13 13 13 13 13 13 13 14 14 15 15 14 14 12 12 13 15 14 16 19 21 24 25 23 24 26 27 26 26 25 24 22 22 22 22 21 21 21
27 28 28 27 27 26 25 25 24 24 23 22 20 18 17 16 14 12 11 11 11 12 12 12 11 10 9 8 7 6 6 5 5 5 6 6 6 7 8 8 9 9 10 10 11 12 12 12 13 13 13 13 13 14 14 13 13 14 13 12 12 13 13 13 14 16 17 21 25 25 25 27 27 28 28 27 27 28 27 26 24 23 21 21 21
30 29 29 28 27 26 25 24 23 23 22 20 19 17 14 12 10 9 9 10 10 11 10 10 10 8 7 6 6 5 5 5 6 6 6 7 7 8 8 9 9 10 11 11 12 12 12 13 13 14 14 15 15 15 14 14 14 14 14 13 13 13 13 14 15 17 18 20 21 25 31 32 31 31 29 28 28 28 29 29 27 26 24 21 21
30 29 28 27 26 25 24 23 22 22 21 19 17 15 12 10 9 8 8 9 10 10 9 9 8 7 5 5 5 5 5 5 6 7 7 7 8 9 9 10 11 11 12 12 12 12 13 13 14 15 15 15 15 16 16 16 15 16 16 16 16 16 16 17 18 19 20 21 22 27 32 33 35 36 33 31 31 31 31 30 29 29 27 25 24
29 28 27 26 25 24 23 22 21 21 20 18 16 14 12 10 9 8 8 9 10 9 8 7 7 6 5 5 5 5 5 6 6 7 7 8 9 10 10 11 12 12 12 13 13 14 14 14 15 15 15 15 16 16 16 16 16 16 17 17 18 18 18 18 19 20 21 23 25 29 31 33 36 37 37 36 35 34 33 32 32 31 30 30 29
Wind_Direction
196 182 181 189 182 178 172 169 167 168 171 171 167 162 168 165 165 173 181 197 191 119 93 75 52 46 49 49 58 69 83 91 95 99 101 97 98 94 81 72 59 39 34 39 38 32 27 18 14 11 11 12 17 27 37 46 52 62 68 71 70 69 74 80 82 85 86 72 65 70 70 72 76 74 73 76 79 80 84 89 85 76 69 70 84
199 187 182 188 185 178 175 172 169 170 171 171 169 166 167 163 168 170 186 215 210 140 100 89 61 65 73 63 61 80 93 94 100 99 94 91 95 94 84 76 67 51 38 32 32 33 33 24 19 15 11 11 16 27 33 40 44 50 56 62 61 58 59 62 68 74 76 71 68 66 59 58 62 68 68 70 76 79 85 90 87 84 79 75 83
190 187 186 187 187 182 178 175 172 173 172 173 173 172 172 172 179 185 205 231 256 197 98 88 25 49 100 105 101 107 102 94 100 99 91 85 84 87 87 79 68 53 31 11 13 16 21 25 24 19 15 12 15 28 33 36 36 40 44 51 54 52 53 53 60 63 65 66 63 56 47 40 39 48 57 58 62 69 78 90 88 82 79 77 82
179 185 189 187 188 187 181 178 176 176 175 178 178 179 182 181 186 195 209 223 259 247 109 53 353 352 93 131 139 129 107 94 98 98 89 76 69 75 82 81 66 42 22 2 3 5 11 20 25 21 17 12 12 17 24 32 33 37 38 39 42 44 47 50 54 54 54 54 52 50 43 33 24 29 42 47 49 55 63 78 89 89 84 78 75
168 180 190 189 189 190 185 182 180 181 180 182 182 184 188 188 192 202 219 232 256 259 163 66 311 309 13 136 144 131 112 94 93 94 84 69 62 65 64 69 62 26 6 354 352 355 3 16 22 16 12 10 9 6 4 5 10 15 20 29 29 29 33 39 42 41 40 42 49 52 49 41 23 26 40 40 41 45 54 68 81 91 93 85 76
160 174 187 189 189 190 189 186 183 186 185 183 186 189 193 195 201 210 227 243 261 279 260 202 268 279 293 159 148 132 114 94 87 83 71 55 44 37 22 39 40 3 349 342 336 329 339 359 2 353 350 358 6 5 357 340 334 332 330 339 351 360 1 6 10 12 16 27 50 58 60 54 27 25 37 33 37 38 37 44 64 84 83 89 89
154 169 182 187 190 191 191 190 188 190 189 187 188 191 197 200 207 217 231 250 271 286 273 236 266 252 234 180 156 135 114 89 75 65 51 35 19 5 349 342 340 330 306 302 308 310 316 329 334 331 326 329 348 357 354 338 324 313 306 303 304 315 323 330 334 341 348 2 48 70 75 67 31 12 17 22 25 28 32 30 23 51 49 42 50
154 164 176 186 192 191 191 195 195 196 196 191 190 193 198 202 207 218 231 250 273 278 169 219 292 258 224 200 175 149 128 82 61 41 28 19 6 352 338 328 322 276 256 271 287 297 305 315 322 317 311 305 318 334 337 332 319 305 291 287 288 294 302 309 313 320 330 336 12 101 107 96 62 360 343 349 346 352 4 358 342 331 328 321 303
153 163 174 185 194 192 192 197 200 202 203 199 195 196 199 204 209 219 235 244 250 214 161 183 267 269 237 206 196 175 162 69 44 20 11 5 357 345 335 323 235 235 256 270 283 294 302 314 315 301 298 296 303 315 321 320 309 297 284 278 282 286 292 299 304 309 314 314 312 147 122 112 99 359 319 315 315 325 335 336 321 300 298 300 284
150 165 174 185 194 194 196 199 202 204 206 206 203 202 203 209 214 223 234 232 227 205 178 188 217 264 252 218 217 220 251 23 21 9 3 357 353 340 335 314 220 237 260 276 289 299 313 319 291 292 294 294 300 305 310 313 302 292 285 281 282 291 299 306 310 308 308 280 283 45 104 111 126 202 284 297 311 320 330 344 343 327 326 319 293
150 165 173 185 194 196 200 202 203 205 206 208 205 206 207 210 216 222 224 218 219 214 187 189 213 250 268 243 240 309 342 5 7 360 357 358 2 356 356 24 233 253 265 280 295 306 337 360 329 308 297 292 298 303 308 311 308 301 290 287 296 339 34 57 68 77 99 123 141 120 107 110 149 197 231 325 339 339 343 3 23 27 25 34 52
145 163 175 183 191 196 204 206 206 207 206 206 202 203 205 207 211 213 212 212 215 214 191 192 209 233 279 267 243 351 354 350 352 350 353 4 15 20 33 45 290 275 261 277 303 320 350 2 354 329 306 301 304 303 311 320 324 322 307 25 74 68 72 81 87 90 96 106 114 111 106 106 127 163 140 81 52 11 341 355 35 39 18 31 19
134 157 173 182 189 194 202 210 210 211 209 203 200 200 203 204 207 209 210 215 216 210 199 203 210 223 261 252 248 338 350 327 335 342 349 4 16 20 28 29 341 310 289 314 327 335 349 354 354 342 320 320 324 312 318 354 9 26 96 99 92 81 74 76 79 82 84 86 91 92 99 111 102 136 147 154 193 271 303 310 325 306 304 317 318
117 146 169 181 189 192 198 206 209 213 213 205 200 200 202 204 204 206 212 220 219 209 205 215 224 232 238 220 246 301 317 305 317 329 333 351 5 8 6 13 346 317 321 331 332 339 350 353 359 1 344 336 343 112 108 94 103 112 114 113 109 95 82 71 67 67 68 68 68 67 74 98 55 58 160 193 222 277 295 296 308 299 295 297 303
103 128 158 174 185 193 199 203 206 210 215 212 203 200 202 205 204 201 209 219 219 215 216 219 228 240 228 203 225 250 268 285 296 303 311 333 347 355 352 345 326 309 318 326 329 339 347 349 357 6 3 7 82 139 126 122 125 124 123 126 120 103 91 79 72 66 64 65 63 60 54 40 11 13 8 12 37 327 314 316 322 312 306 305 307
103 112 141 164 177 189 198 204 208 208 213 217 210 205 204 206 205 202 209 214 217 221 226 226 227 234 225 205 211 224 235 250 266 282 290 304 314 324 325 323 318 307 310 318 326 336 338 337 344 360 8 22 109 140 135 131 135 133 131 129 118 100 88 76 72 71 70 75 76 75 64 36 8 9 5 4 20 3 339 340 337 332 325 320 320
126 128 146 158 169 180 191 203 209 211 212 216 216 211 207 208 206 204 210 214 217 222 230 234 231 234 227 215 211 217 228 235 246 262 272 277 279 287 296 302 304 299 302 312 321 328 329 330 331 334 345 359 134 149 146 143 149 146 142 139 114 87 70 60 59 62 69 76 82 87 82 66 31 10 7 4 14 14 358 354 350 345 339 334 330
172 168 179 173 174 178 182 195 204 213 214 217 219 217 212 210 208 207 210 214 218 224 231 235 233 232 227 223 218 217 225 232 238 243 254 260 264 271 283 292 294 292 299 311 319 321 323 326 327 323 316 303 160 164 164 158 161 159 158 156 136 93 60 48 49 52 64 70 75 80 77 68 52 13 2 5 11 14 5 4 360 348 344 346 345
214 209 217 204 199 196 189 193 196 208 214 218 220 220 219 213 210 210 212 216 220 226 229 232 233 231 228 227 222 221 224 229 232 235 245 253 261 267 274 281 286 290 295 308 314 316 323 330 328 323 317 306 256 186 182 175 171 171 172 172 162 117 64 48 53 61 67 71 76 73 74 67 56 31 3 359 359 5 5 3 358 350 351 350 349
224 224 228 221 219 215 209 205 199 204 210 217 219 220 222 217 214 214 215 218 223 227 228 229 230 231 231 229 228 229 234 237 234 237 244 249 258 261 264 272 278 283 290 303 306 306 321 335 332 327 321 315 304 215 197 191 187 187 185 192 193 133 56 54 72 83 86 82 86 75 75 77 64 47 15 3 355 357 360 358 355 353 357 353 348
223 226 229 224 222 222 221 217 210 209 207 213 218 219 221 219 217 219 221 222 227 231 231 231 231 236 239 235 233 234 239 243 239 239 244 247 256 261 266 275 278 280 289 299 298 297 317 338 342 337 324 314 303 245 214 209 204 206 204 214 232 245 332 17 130 133 131 131 122 105 94 91 85 78 42 20 3 356 356 355 354 356 356 352 349
223 226 228 227 226 225 226 225 219 217 211 209 213 217 220 216 213 221 226 228 233 236 235 236 235 238 248 247 239 239 239 240 240 238 241 244 251 261 270 276 278 280 287 296 296 299 314 334 343 341 332 319 304 268 228 222 218 220 219 225 247 262 288 293 260 223 204 202 177 165 148 116 111 113 99 64 19 5 2 1 357 357 355 351 352
226 229 228 228 227 225 227 229 228 225 219 211 207 210 215 211 205 211 219 224 230 237 238 238 236 233 240 246 239 238 237 237 242 238 236 239 245 256 266 275 276 274 285 297 299 306 318 324 331 336 335 327 311 290 250 233 230 229 228 231 242 257 271 283 274 250 238 225 216 219 207 197 160 139 122 112 70 29 15 13 4 359 356 358 5
232 234 234 234 231 228 227 227 228 229 229 219 209 204 206 209 206 206 210 217 225 232 238 243 243 236 233 237 235 233 233 237 245 245 240 237 245 256 263 274 266 260 283 293 296 311 320 318 324 333 336 332 318 303 283 254 243 239 238 237 239 251 262 274 277 266 253 240 231 225 224 227 210 220 137 109 95 65 32 20 7 1 357 3 14
237 239 243 244 242 238 233 229 225 225 230 226 217 207 196 200 208 211 207 208 216 225 234 244 247 247 245 240 237 235 233 237 243 248 247 238 244 256 262 267 259 256 275 283 289 310 315 313 322 329 332 331 321 309 299 289 267 253 247 247 247 250 258 269 276 277 270 259 251 242 238 237 231 243 269 332 49 66 41 25 7 358 352 358 13
241 246 251 255 255 251 243 235 227 221 223 226 221 211 193 190 202 214 210 203 214 225 232 235 234 245 253 246 245 244 237 240 244 247 249 243 241 249 257 261 264 266 270 274 284 302 304 301 314 323 324 326 321 314 306 300 293 277 261 256 256 257 261 266 273 279 279 274 270 263 260 259 256 259 265 294 316 337 14 22 357 352 350 345 353
253 258 260 264 266 264 256 238 225 218 215 218 219 210 187 175 196 210 207 201 216 230 238 236 231 238 245 244 249 251 244 239 241 247 248 247 239 239 251 255 263 268 267 275 286 296 294 289 312 325 322 324 319 315 314 309 302 293 281 269 262 263 264 266 270 274 279 280 279 277 276 274 271 273 277 285 293 301 312 332 343 353 354 342 336
280 282 277 272 267 263 261 237 217 211 209 208 209 209 183 170 186 191 189 196 207 220 233 238 234 240 245 245 250 248 245 238 234 244 244 243 240 237 245 251 260 264 264 272 283 290 286 283 321 328 323 327 323 320 324 320 311 302 296 287 274 268 267 266 269 270 275 278 280 280 281 283 280 278 278 280 285 291 299 311 326 335 340 337 324
307 304 302 290 274 259 256 231 206 202 203 200 198 201 181 168 171 163 178 198 198 216 228 231 228 237 250 252 253 250 250 245 234 238 244 240 234 233 241 253 263 262 257 265 273 276 271 275 303 319 320 323 322 323 325 323 321 314 307 301 291 281 273 269 269 269 272 274 278 280 280 282 283 284 283 281 284 286 292 304 314 310 316 319 309
314 330 353 332 282 247 241 215 198 196 197 194 191 188 169 159 170 171 188 192 187 212 220 222 223 226 239 244 250 255 263 262 241 237 246 239 228 235 247 257 263 254 253 268 271 267 266 273 282 294 309 313 314 321 323 320 319 317 315 311 303 294 283 275 271 269 271 272 275 277 279 281 283 286 285 285 286 287 290 296 305 309 302 269 276
137 114 87 99 107 116 158 177 188 191 193 192 188 183 167 168 192 190 194 193 192 211 216 217 219 217 219 228 242 251 259 275 273 251 241 243 240 241 251 256 249 241 249 269 270 265 267 275 274 274 293 303 304 314 317 316 314 312 313 314 314 308 299 289 278 271 268 269 271 273 276 278 281 284 284 285 285 288 290 292 296 299 296 274 267
145 155 141 126 116 123 145 157 178 186 191 193 190 190 182 181 197 199 198 203 204 210 214 217 218 219 229 239 242 246 249 254 265 253 236 239 234 231 244 247 241 245 258 268 261 253 248 264 271 264 276 282 282 301 309 311 312 309 309 313 318 318 313 307 297 288 278 273 272 272 275 277 279 281 283 285 284 285 286 288 289 288 289 286 284
140 146 142 145 143 148 158 157 172 184 188 194 190 193 196 191 196 199 197 202 204 206 212 220 223 225 236 246 243 242 243 243 247 252 236 225 214 216 238 240 235 244 259 263 249 238 237 253 264 261 271 275 273 290 297 299 303 307 311 313 316 317 317 315 312 308 300 291 283 278 277 277 278 280 281 283 282 282 280 281 283 283 284 283 284
105 111 124 146 157 157 165 164 168 180 184 189 190 192 197 193 193 198 198 200 203 205 207 211 218 221 224 231 236 238 239 235 234 242 233 217 221 235 239 235 231 232 245 256 248 246 249 252 259 259 268 278 279 284 285 291 297 304 310 309 311 313 314 315 315 314 311 306 299 292 286 282 281 280 279 279 279 279 278 276 276 277 279 280 282
92 97 119 137 155 156 160 164 166 177 179 180 189 190 189 193 196 199 202 203 201 199 197 201 213 222 227 233 244 250 247 236 224 231 237 236 247 250 240 229 222 231 251 257 255 261 264 261 265 264 266 271 273 277 279 286 293 296 301 303 305 308 309 309 310 311 309 307 305 301 297 293 289 285 282 280 278 278 277 276 274 274 274 275 277
105 111 120 125 138 149 150 156 159 166 169 172 183 184 184 194 196 194 197 194 187 188 195 204 213 222 237 243 246 254 259 249 232 242 254 255 256 260 261 248 231 241 251 248 255 261 260 261 266 270 270 267 266 269 269 271 278 285 294 299 301 302 303 303 304 306 306 304 302 301 299 297 294 290 287 283 281 279 278 277 276 275 274 273 273
107 110 118 124 126 133 141 147 149 152 158 163 173 178 180 186 184 179 176 171 171 173 171 174 182 189 209 215 210 214 164 41 339 274 275 280 280 284 293 280 256 251 251 255 265 263 265 271 275 277 275 271 272 271 270 272 276 281 288 292 295 299 301 301 301 300 301 302 301 300 298 296 293 291 290 288 286 283 280 278 277 276 275 274 273
110 113 119 125 126 131 143 147 143 142 147 154 163 170 172 174 171 160 155 160 164 156 146 145 145 136 128 125 124 120 107 82 62 57 30 22 21 17 12 339 310 286 269 274 284 280 279 281 282 283 279 278 280 281 281 280 281 283 283 286 290 294 295 296 296 294 295 297 298 299 298 296 294 292 291 289 287 285 283 280 277 276 275 275 274
116 119 122 124 126 129 135 138 133 130 132 140 149 152 152 156 158 153 155 157 149 146 154 168 168 160 160 148 131 127 127 111 95 88 31 354 347 337 326 307 290 284 279 275 276 274 268 268 274 284 288 288 287 288 286 283 284 284 284 287 289 289 289 291 291 290 291 293 295 296 296 296 294 293 291 289 286 284 283 282 280 277 274 273 273
123 123 123 124 125 124 124 123 122 122 124 129 132 134 134 138 147 153 154 150 149 156 170 193 198 183 186 186 186 192 153 125 87 48 345 317 302 302 308 307 293 286 288 282 278 278 279 283 289 296 298 296 295 294 290 289 289 288 288 290 292 293 294 292 291 293 294 293 293 293 293 292 291 291 290 289 288 285 283 281 281 279 278 275 273
132 126 122 124 123 123 124 120 115 112 113 118 122 130 137 141 152 166 165 157 158 160 145 135 125 117 113 102 80 63 57 45 36 32 28 29 30 29 20 12 7 3 5 359 351 345 337 332 327 326 324 317 314 311 308 309 308 304 304 306 309 310 307 301 296 296 294 291 290 289 288 289 289 289 287 286 285 283 282 280 280 280 279 279 277
141 135 130 129 125 123 124 119 112 109 109 117 124 132 145 155 162 162 155 144 134 123 111 98 91 88 85 83 80 73 67 60 57 53 49 48 45 41 37 34 30 27 25 19 13 7 0 357 353 348 344 339 335 329 327 329 327 324 325 329 330 327 323 316 305 299 300 295 289 286 285 286 286 287 289 289 287 284 282 280 280 280 280 280 279
147 144 139 133 130 128 126 122 119 117 113 116 120 121 126 132 131 125 121 119 113 105 98 91 87 85 83 81 78 74 69 65 63 59 55 52 48 44 40 38 34 30 27 23 18 14 11 10 9 7 0 354 348 341 340 340 340 340 340 339 334 334 332 313 310 319 317 308 295 290 289 292 295 298 301 301 297 293 290 286 284 282 282 282 281
153 149 144 139 137 135 132 130 128 123 115 113 112 109 109 110 110 109 108 106 102 97 92 89 87 84 81 77 72 67 62 60 58 53 48 45 40 38 35 33 29 27 24 19 14 12 11 11 10 12 9 5 1 356 355 353 352 354 355 347 333 344 346 305 319 328 329 323 314 313 312 311 312 312 314 314 312 307 302 297 293 290 287 285 284
154 150 146 143 140 136 131 127 123 118 113 109 107 104 102 103 104 104 102 98 96 95 93 90 87 82 77 73 67 61 55 52 49 44 38 33 29 26 24 21 17 14 11 7 5 4 5 5 5 6 6 9 11 7 4 2 3 3 5 4 349 341 322 320 330 332 324 321 321 326 329 328 328 327 328 329 327 324 321 316 312 306 301 296 292
149 145 141 137 133 129 125 121 117 113 109 106 104 102 101 101 100 100 99 98 98 97 93 89 84 79 74 69 64 60 53 46 43 38 31 25 20 16 12 9 4 1 2 2 1 1 1 0 1 3 3 7 10 9 7 8 9 8 9 13 7 342 326 332 338 324 319 322 324 330 333 333 333 332 334 336 334 335 334 333 332 328 324 318 311
143 138 134 131 127 124 121 118 115 111 108 106 104 103 103 101 99 100 101 101 100 96 92 88 85 81 77 73 68 62 54 46 42 35 27 21 15 11 7 3 1 359 360 359 357 359 1 0 2 2 3 5 5 5 8 9 9 9 11 12 7 357 346 344 340 329 326 321 322 326 326 327 330 329 333 337 336 336 335 337 337 336 336 334 330
139 135 132 129 126 124 121 119 116 113 110 107 105 103 101 101 102 102 103 100 97 96 94 90 88 87 85 82 76 67 59 48 43 35 28 25 18 14 12 9 7 6 5 4 5 8 8 7 7 6 6 7 6 7 8 7 6 6 6 5 1 358 353 348 342 339 332 322 322 323 319 320 322 323 328 333 333 334 334 335 337 336 337 336 334
137 134 132 130 128 127 125 123 120 117 114 112 108 105 103 105 105 101 99 100 98 97 97 94 92 90 88 86 79 67 59 48 43 38 31 29 24 21 21 17 15 15 15 16 17 16 12 11 10 9 10 9 9 10 8 6 6 4 1 358 355 352 348 344 340 338 335 327 322 322 322 322 320 319 322 326 327 328 329 331 332 333 334 334 334
138 136 134 134 133 131 130 129 126 123 119 116 115 116 119 118 112 102 97 100 102 100 100 99 96 94 88 82 77 66 57 48 43 37 32 29 25 22 19 16 15 16 16 16 15 13 10 9 8 8 7 6 5 5 5 4 2 360 357 353 350 348 346 343 340 336 335 329 321 320 324 325 322 319 319 321 321 322 323 325 326 327 328 329 330
139 139 138 137 137 136 135 134 131 127 124 125 128 132 133 127 116 107 100 99 103 102 100 101 99 97 89 76 70 62 54 48 41 34 28 25 22 18 14 13 13 11 10 9 8 7 6 5 5 4 1 359 360 358 358 357 354 353 351 348 347 346 344 340 337 333 330 326 320 318 321 323 320 317 318 319 317 317 318 319 321 322 323 325 325
Height
1564 1564 1565 1567 1568 1569 1570 1571 1572 1573 1573 1574 1575 1575 1576 1576 1577 1577 1578 1578 1579 1579 1579 1580 1580 1580 1580 1581 1581 1581 1580 1581 1581 1581 1581 1582 1582 1583 1583 1582 1582 1581 1581 1580 1580 1580 1580 1579 1579 1578 1578 1577 1577 1577 1577 1577 1577 1576 1576 1576 1576 1576 1576 1576 1575 1575 1575 1574 1574 1574 1574 1573 1573 1573 1572 1572 1572 1572 1572 1571 1571 1571 1570 1570 1570
1564 1565 1565 1567 1568 1569 1571 1571 1573 1573 1574 1575 1575 1576 1576 1577 1577 1578 1578 1579 1579 1580 1580 1580 1581 1581 1581 1581 1582 1582 1581 1581 1581 1582 1582 1582 1582 1583 1583 1583 1582 1582 1581 1581 1580 1580 1580 1579 1579 1579 1579 1578 1578 1577 1577 1577 1577 1577 1577 1576 1576 1576 1576 1576 1576 1576 1576 1575 1575 1575 1575 1574 1574 1574 1573 1573 1573 1573 1572 1572 1572 1571 1571 1571 1570
1564 1565 1566 1567 1569 1569 1571 1572 1573 1574 1575 1575 1576 1577 1577 1578 1578 1578 1579 1579 1580 1580 1581 1581 1581 1581 1582 1582 1582 1582 1582 1582 1582 1582 1582 1583 1583 1583 1583 1583 1583 1582 1582 1581 1581 1580 1580 1579 1579 1579 1579 1579 1578 1578 1578 1577 1577 1577 1577 1577 1577 1576 1576 1576 1576 1576 1576 1576 1576 1576 1575 1575 1575 1574 1574 1574 1574 1574 1573 1573 1573 1572 1572 1571 1571
1565 1566 1566 1567 1569 1570 1571 1572 1573 1574 1575 1576 1576 1577 1577 1578 1578 1579 1579 1579 1580 1581 1581 1581 1582 1582 1582 1582 1583 1582 1582 1582 1583 1583 1583 1583 1583 1584 1583 1583 1583 1583 1582 1581 1581 1580 1580 1580 1580 1579 1579 1579 1579 1579 1578 1578 1577 1577 1577 1577 1577 1577 1577 1577 1577 1577 1577 1577 1577 1576 1576 1576 1576 1575 1575 1575 1574 1574 1574 1574 1573 1573 1573 1572 1572
1565 1566 1567 1568 1569 1570 1571 1572 1573 1574 1575 1576 1576 1577 1577 1578 1578 1579 1579 1580 1580 1581 1581 1581 1582 1581 1582 1582 1582 1582 1582 1583 1583 1583 1583 1584 1584 1584 1584 1583 1583 1583 1582 1582 1581 1581 1580 1580 1580 1580 1579 1579 1579 1579 1579 1578 1578 1578 1577 1577 1577 1577 1577 1577 1577 1577 1577 1577 1577 1577 1578 1577 1576 1576 1575 1575 1575 1575 1575 1574 1574 1574 1573 1573 1573
1565 1566 1567 1568 1569 1570 1571 1572 1573 1574 1575 1576 1576 1577 1578 1578 1579 1579 1579 1580 1580 1581 1581 1582 1581 1581 1581 1582 1582 1582 1582 1583 1583 1584 1584 1584 1584 1584 1583 1583 1583 1583 1582 1582 1581 1581 1581 1580 1580 1579 1579 1579 1579 1579 1579 1578 1578 1578 1578 1577 1577 1577 1577 1577 1577 1577 1577 1577 1577 1578 1578 1578 1577 1576 1576 1575 1575 1575 1575 1575 1574 1574 1574 1573 1573
1566 1566 1567 1568 1569 1570 1571 1572 1573 1574 1575 1576 1576 1577 1578 1578 1579 1579 1580 1580 1580 1581 1581 1581 1581 1581 1581 1582 1582 1582 1582 1583 1583 1584 1584 1584 1584 1583 1583 1583 1583 1582 1582 1581 1581 1581 1581 1580 1580 1579 1579 1579 1579 1579 1579 1579 1578 1578 1578 1577 1577 1577 1577 1577 1577 1577 1577 1577 1578 1578 1578 1578 1577 1577 1576 1576 1575 1575 1575 1575 1574 1574 1574 1574 1574
1566 1567 1567 1568 1569 1570 1571 1572 1573 1574 1575 1576 1576 1577 1578 1578 1579 1579 1580 1580 1581 1581 1581 1581 1581 1581 1581 1581 1582 1582 1582 1582 1583 1583 1583 1583 1583 1583 1583 1582 1582 1582 1582 1581 1581 1580 1580 1580 1580 1579 1579 1579 1579 1579 1579 1578 1578 1578 1578 1577 1577 1577 1577 1577 1577 1577 1577 1577 1577 1578 1578 1578 1578 1577 1577 1576 1575 1575 1575 1575 1574 1574 1574 1573 1573
1567 1567 1567 1568 1568 1569 1570 1571 1573 1574 1574 1575 1576 1577 1577 1578 1579 1579 1579 1580 1580 1581 1581 1581 1581 1581 1581 1581 1582 1582 1582 1582 1583 1583 1583 1583 1583 1582 1582 1582 1582 1582 1581 1581 1581 1580 1580 1580 1580 1579 1579 1579 1579 1579 1578 1578 1578 1577 1577 1577 1577 1577 1577 1577 1577 1576 1577 1577 1577 1577 1577 1578 1578 1577 1577 1576 1575 1575 1575 1574 1574 1573 1573 1573 1573
1567 1567 1568 1568 1569 1569 1570 1571 1572 1573 1574 1575 1576 1576 1577 1578 1578 1579 1579 1580 1580 1580 1581 1581 1581 1581 1581 1581 1582 1582 1582 1583 1583 1583 1583 1583 1583 1582 1582 1582 1582 1582 1581 1581 1581 1580 1580 1580 1580 1579 1579 1579 1578 1578 1578 1578 1577 1577 1576 1576 1576 1576 1576 1576 1576 1576 1576 1576 1576 1576 1576 1577 1578 1577 1577 1576 1575 1575 1574 1574 1574 1573 1572 1572 1572
1567 1568 1568 1569 1569 1570 1570 1571 1572 1573 1574 1575 1575 1576 1577 1577 1578 1579 1579 1580 1580 1580 1580 1581 1581 1581 1581 1581 1582 1582 1582 1583 1583 1583 1583 1583 1582 1582 1582 1582 1582 1582 1582 1581 1581 1580 1580 1580 1580 1579 1579 1578 1578 1578 1578 1577 1577 1576 1576 1576 1576 1576 1576 1576 1575 1575 1576 1576 1576 1576 1576 1577 1577 1577 1576 1576 1575 1575 1574 1574 1574 1573 1572 1572 1572
1567 1568 1568 1569 1569 1570 1570 1571 1572 1573 1574 1575 1575 1576 1577 1577 1578 1578 1579 1579 1580 1580 1580 1581 1581 1581 1581 1582 1582 1582 1582 1583 1583 1583 1583 1583 1582 1582 1582 1582 1582 1582 1582 1582 1581 1580 1580 1580 1579 1579 1578 1578 1578 1578 1577 1577 1577 1576 1576 1576 1576 1576 1576 1576 1575 1575 1575 1575 1575 1575 1576 1576 1576 1576 1576 1576 1575 1575 1574 1574 1574 1573 1572 1572 1571
1567 1568 1568 1569 1569 1569 1570 1571 1572 1572 1573 1574 1575 1576 1577 1577 1578 1578 1579 1579 1580 1580 1580 1581 1581 1581 1582 1582 1582 1582 1582 1583 1583 1583 1583 1583 1582 1582 1582 1583 1583 1582 1582 1582 1581 1580 1580 1579 1579 1578 1578 1577 1577 1577 1577 1577 1577 1577 1576 1576 1576 1576 1576 1576 1576 1576 1575 1575 1575 1575 1576 1576 1576 1576 1576 1575 1575 1575 1574 1574 1573 1573 1572 1572 1571
1567 1568 1568 1568 1569 1569 1570 1570 1571 1572 1573 1574 1575 1576 1576 1577 1577 1578 1578 1579 1579 1579 1580 1580 1581 1581 1581 1582 1582 1582 1582 1583 1583 1583 1583 1583 1583 1582 1583 1583 1583 1583 1582 1582 1581 1581 1580 1579 1578 1578 1577 1577 1577 1577 1577 1577 1577 1577 1577 1576 1576 1576 1576 1576 1576 1576 1576 1576 1575 1575 1576 1576 1576 1575 1575 1575 1575 1574 1574 1574 1573 1572 1572 1571 1571
1567 1567 1568 1568 1568 1569 1569 1570 1570 1571 1572 1573 1574 1575 1575 1576 1577 1577 1578 1578 1579 1579 1579 1580 1580 1581 1581 1581 1582 1582 1582 1583 1583 1583 1583 1583 1583 1583 1583 1583 1582 1582 1582 1582 1581 1580 1580 1579 1578 1578 1577 1577 1577 1577 1577 1577 1577 1577 1577 1577 1576 1576 1576 1576 1576 1576 1576 1576 1576 1576 1576 1576 1575 1575 1575 1575 1575 1574 1574 1573 1573 1572 1572 1571 1571
1566 1567 1567 1567 1568 1568 1569 1569 1570 1570 1571 1572 1573 1574 1574 1575 1576 1576 1577 1578 1578 1578 1579 1579 1580 1580 1581 1581 1581 1582 1582 1582 1582 1582 1582 1582 1582 1582 1582 1582 1582 1582 1582 1581 1581 1580 1580 1579 1578 1577 1577 1577 1577 1577 1577 1577 1577 1577 1577 1577 1577 1577 1576 1576 1576 1576 1576 1576 1576 1576 1576 1575 1575 1575 1575 1574 1574 1574 1574 1573 1573 1572 1572 1571 1571
1566 1566 1566 1567 1567 1568 1568 1568 1569 1570 1570 1571 1572 1573 1573 1574 1575 1575 1576 1577 1577 1578 1578 1579 1579 1579 1580 1580 1581 1581 1582 1582 1582 1582 1582 1582 1582 1582 1582 1582 1582 1582 1581 1581 1581 1581 1580 1579 1578 1577 1577 1576 1576 1576 1576 1577 1577 1577 1577 1577 1577 1577 1577 1576 1576 1576 1576 1576 1575 1575 1575 1575 1575 1574 1574 1574 1574 1573 1573 1573 1572 1572 1571 1571 1570
1566 1566 1566 1566 1566 1567 1567 1568 1568 1569 1569 1570 1571 1572 1572 1573 1574 1574 1575 1576 1576 1577 1577 1578 1578 1579 1579 1579 1580 1580 1581 1581 1582 1581 1582 1582 1582 1582 1582 1582 1582 1581 1581 1581 1581 1581 1580 1579 1578 1577 1576 1576 1576 1576 1576 1576 1576 1577 1577 1577 1577 1577 1577 1576 1576 1576 1576 1575 1575 1575 1575 1575 1574 1574 1574 1573 1573 1573 1572 1572 1572 1571 1571 1570 1570
1566 1566 1566 1566 1566 1566 1566 1567 1567 1568 1568 1569 1570 1570 1571 1572 1573 1573 1574 1575 1575 1576 1577 1577 1577 1578 1578 1579 1579 1579 1580 1581 1581 1581 1581 1581 1581 1582 1582 1582 1582 1581 1581 1581 1581 1580 1580 1580 1579 1578 1577 1576 1576 1576 1576 1576 1576 1576 1576 1577 1576 1576 1576 1576 1576 1575 1575 1575 1575 1574 1574 1574 1574 1574 1574 1573 1573 1572 1572 1571 1571 1571 1570 1570 1569
1565 1565 1565 1565 1565 1565 1565 1566 1566 1567 1567 1568 1568 1569 1570 1571 1572 1572 1573 1574 1575 1575 1576 1576 1576 1577 1577 1578 1578 1579 1580 1580 1580 1580 1581 1581 1581 1581 1581 1582 1581 1581 1580 1581 1581 1580 1580 1580 1579 1578 1577 1576 1576 1576 1576 1576 1576 1576 1576 1576 1576 1576 1576 1575 1575 1575 1574 1574 1574 1574 1574 1573 1573 1573 1573 1573 1572 1572 1571 1571 1570 1570 1570 1569 1569
1564 1564 1564 1564 1565 1565 1565 1565 1565 1566 1566 1566 1567 1568 1568 1569 1571 1571 1572 1573 1574 1574 1575 1575 1576 1576 1577 1577 1578 1579 1580 1580 1580 1580 1580 1580 1580 1580 1580 1581 1581 1580 1580 1580 1580 1580 1580 1581 1580 1579 1578 1577 1576 1576 1576 1576 1576 1576 1576 1576 1576 1576 1575 1575 1575 1574 1574 1574 1573 1573 1573 1573 1573 1573 1572 1572 1572 1571 1571 1570 1570 1569 1569 1568 1568
1563 1563 1563 1564 1564 1564 1564 1564 1564 1564 1565 1565 1566 1567 1567 1568 1570 1571 1572 1573 1573 1574 1574 1575 1576 1576 1576 1577 1578 1579 1579 1579 1580 1579 1579 1580 1580 1579 1580 1580 1580 1580 1580 1580 1580 1580 1581 1581 1580 1579 1578 1578 1577 1576 1576 1575 1575 1575 1575 1575 1576 1575 1575 1575 1574 1574 1574 1573 1573 1572 1572 1572 1572 1572 1571 1571 1571 1571 1570 1570 1569 1568 1568 1567 1567
1562 1562 1562 1562 1563 1563 1563 1564 1564 1564 1564 1564 1565 1566 1566 1567 1569 1570 1571 1572 1573 1573 1574 1575 1575 1575 1576 1577 1577 1578 1578 1578 1578 1579 1579 1579 1579 1579 1579 1580 1580 1579 1579 1579 1579 1580 1580 1580 1580 1579 1578 1578 1577 1576 1575 1575 1575 1575 1575 1575 1575 1575 1575 1575 1575 1574 1574 1573 1573 1572 1572 1572 1571 1571 1571 1570 1570 1570 1569 1569 1568 1568 1567 1567 1566
1561 1561 1561 1562 1562 1562 1562 1563 1563 1563 1563 1564 1564 1565 1565 1566 1567 1569 1570 1571 1572 1573 1573 1574 1574 1574 1575 1576 1576 1576 1577 1577 1577 1578 1578 1578 1578 1578 1578 1579 1578 1578 1578 1579 1579 1579 1580 1579 1579 1578 1578 1577 1577 1576 1575 1575 1575 1575 1575 1575 1574 1575 1574 1574 1574 1574 1573 1573 1573 1572 1572 1571 1571 1571 1570 1570 1569 1569 1569 1568 1568 1567 1567 1566 1566
1560 1561 1561 1561 1561 1561 1561 1561 1562 1563 1563 1563 1564 1564 1565 1566 1567 1567 1569 1570 1571 1572 1572 1573 1573 1574 1574 1575 1575 1575 1576 1576 1576 1576 1577 1577 1577 1577 1578 1578 1577 1577 1578 1578 1578 1578 1579 1579 1578 1578 1577 1577 1576 1576 1575 1575 1574 1574 1574 1574 1574 1574 1574 1574 1574 1573 1573 1573 1572 1572 1572 1571 1571 1571 1570 1570 1569 1568 1568 1568 1567 1567 1566 1566 1565
1559 1559 1559 1559 1559 1560 1560 1560 1561 1561 1562 1563 1563 1564 1564 1565 1566 1567 1568 1569 1570 1570 1571 1572 1572 1573 1573 1574 1574 1574 1574 1575 1575 1575 1575 1575 1576 1576 1576 1576 1577 1577 1577 1578 1578 1578 1578 1578 1578 1577 1577 1576 1576 1575 1575 1574 1574 1574 1574 1573 1573 1573 1573 1573 1573 1573 1573 1572 1572 1572 1571 1571 1571 1570 1570 1569 1569 1568 1567 1567 1566 1566 1566 1565 1565
1558 1558 1558 1558 1558 1558 1558 1558 1559 1560 1561 1562 1562 1563 1564 1565 1566 1567 1567 1568 1569 1569 1569 1570 1570 1571 1572 1572 1573 1573 1573 1573 1573 1574 1574 1574 1575 1575 1575 1575 1576 1576 1576 1577 1577 1577 1578 1578 1577 1576 1576 1576 1575 1575 1574 1574 1573 1573 1573 1573 1573 1573 1573 1572 1572 1572 1572 1572 1572 1571 1571 1571 1570 1570 1569 1569 1568 1567 1567 1566 1566 1566 1565 1565 1565
1557 1557 1556 1556 1556 1556 1555 1556 1556 1558 1559 1560 1561 1562 1563 1564 1565 1566 1567 1568 1568 1568 1568 1569 1569 1570 1570 1571 1571 1571 1571 1572 1572 1572 1573 1573 1574 1574 1574 1574 1575 1574 1574 1575 1576 1576 1577 1577 1576 1576 1576 1575 1575 1574 1574 1573 1573 1572 1572 1572 1572 1572 1572 1572 1571 1571 1571 1571 1571 1571 1570 1570 1570 1569 1569 1568 1567 1567 1566 1565 1565 1565 1565 1565 1565
1556 1556 1556 1555 1555 1554 1554 1554 1555 1556 1557 1559 1560 1561 1562 1563 1564 1565 1566 1566 1567 1567 1568 1568 1568 1569 1569 1569 1569 1569 1570 1570 1570 1571 1572 1572 1573 1573 1573 1573 1573 1573 1573 1574 1574 1574 1575 1575 1575 1576 1575 1575 1574 1574 1574 1573 1572 1572 1571 1571 1571 1571 1571 1571 1571 1570 1570 1570 1570 1570 1569 1569 1569 1569 1568 1568 1567 1566 1565 1565 1564 1564 1565 1565 1565
1555 1555 1555 1554 1554 1553 1553 1553 1553 1554 1555 1557 1558 1559 1560 1562 1563 1563 1563 1564 1565 1565 1565 1566 1566 1567 1568 1568 1568 1568 1569 1569 1569 1570 1571 1572 1572 1573 1573 1572 1572 1572 1573 1573 1573 1573 1573 1574 1575 1575 1575 1574 1573 1573 1573 1572 1572 1572 1571 1571 1570 1569 1569 1569 1569 1569 1569 1569 1569 1569 1568 1568 1568 1568 1568 1567 1567 1566 1565 1564 1564 1563 1563 1563 1563
1554 1554 1554 1553 1553 1553 1552 1553 1553 1554 1555 1556 1557 1557 1558 1560 1560 1561 1561 1562 1563 1563 1563 1563 1564 1566 1566 1566 1567 1567 1568 1568 1568 1569 1570 1571 1571 1571 1572 1572 1572 1572 1572 1572 1571 1571 1572 1573 1573 1574 1574 1573 1573 1572 1572 1572 1572 1572 1571 1571 1570 1569 1569 1568 1568 1567 1567 1567 1567 1567 1567 1567 1567 1567 1566 1566 1566 1565 1565 1564 1564 1563 1562 1562 1562
1554 1553 1553 1553 1552 1552 1552 1552 1552 1553 1554 1555 1555 1556 1557 1558 1559 1559 1560 1560 1561 1561 1562 1562 1563 1564 1564 1565 1565 1566 1567 1567 1568 1568 1568 1569 1569 1569 1570 1571 1571 1571 1571 1571 1570 1570 1570 1571 1572 1572 1572 1572 1571 1571 1571 1570 1570 1570 1570 1570 1570 1569 1569 1568 1568 1567 1567 1566 1566 1566 1565 1565 1565 1565 1565 1565 1565 1564 1564 1563 1563 1562 1562 1561 1561
1553 1553 1552 1552 1552 1552 1552 1552 1552 1552 1553 1554 1554 1555 1556 1557 1558 1558 1559 1559 1560 1560 1560 1561 1562 1563 1563 1564 1564 1564 1565 1565 1566 1567 1567 1567 1567 1568 1569 1569 1569 1570 1570 1570 1570 1569 1569 1570 1570 1570 1571 1570 1570 1570 1569 1569 1569 1569 1569 1569 1569 1569 1568 1568 1567 1567 1567 1566 1565 1565 1564 1564 1564 1563 1563 1563 1563 1563 1562 1562 1562 1561 1561 1560 1560
1553 1552 1552 1552 1552 1551 1551 1551 1551 1552 1553 1553 1554 1554 1555 1556 1557 1557 1558 1558 1559 1559 1560 1561 1561 1562 1562 1562 1563 1563 1564 1564 1565 1566 1566 1566 1566 1566 1567 1567 1568 1568 1568 1568 1568 1569 1569 1569 1569 1569 1569 1569 1569 1569 1568 1568 1568 1568 1568 1568 1568 1567 1567 1567 1566 1566 1566 1565 1565 1564 1563 1563 1563 1562 1562 1561 1561 1561 1561 1560 1560 1560 1559 1559 1558
1552 1552 1552 1552 1552 1552 1552 1552 1552 1552 1553 1553 1553 1554 1555 1556 1556 1557 1557 1558 1559 1559 1560 1561 1561 1561 1562 1562 1562 1562 1563 1564 1564 1565 1565 1566 1565 1565 1565 1566 1566 1567 1567 1567 1567 1567 1568 1568 1568 1568 1568 1568 1568 1567 1567 1567 1567 1567 1567 1566 1566 1566 1566 1565 1565 1564 1564 1564 1563 1563 1562 1562 1561 1561 1560 1560 1560 1559 1559 1558 1558 1558 1557 1557 1557
1552 1552 1552 1552 1552 1552 1552 1552 1552 1552 1553 1553 1554 1554 1555 1555 1556 1557 1557 1558 1558 1559 1560 1560 1561 1561 1561 1561 1562 1562 1562 1563 1564 1564 1565 1565 1565 1565 1565 1565 1565 1566 1566 1566 1565 1566 1566 1567 1567 1567 1567 1567 1566 1566 1566 1566 1566 1565 1565 1565 1565 1565 1565 1564 1563 1563 1562 1562 1561 1561 1560 1560 1559 1559 1558 1558 1558 1557 1557 1557 1556 1556 1555 1555 1554
1552 1552 1552 1552 1552 1552 1552 1552 1553 1553 1553 1554 1554 1555 1555 1556 1556 1557 1557 1558 1558 1559 1560 1560 1560 1560 1561 1561 1561 1562 1562 1562 1563 1564 1564 1565 1565 1565 1566 1566 1566 1566 1565 1565 1564 1564 1565 1565 1565 1566 1566 1565 1565 1565 1564 1564 1564 1564 1564 1563 1563 1563 1563 1563 1562 1562 1561 1560 1560 1559 1559 1558 1557 1556 1556 1555 1555 1555 1555 1554 1554 1554 1553 1553 1552
1552 1552 1552 1552 1553 1553 1553 1553 1553 1554 1554 1554 1555 1555 1556 1556 1556 1557 1558 1558 1559 1559 1560 1560 1561 1561 1561 1561 1562 1562 1562 1562 1563 1563 1564 1564 1564 1565 1565 1565 1565 1565 1565 1564 1564 1563 1563 1564 1564 1564 1564 1564 1564 1563 1563 1563 1563 1562 1562 1561 1561 1561 1561 1561 1560 1560 1559 1559 1558 1558 1557 1556 1555 1554 1554 1553 1553 1552 1551 1551 1551 1551 1551 1551 1550
1553 1552 1553 1553 1553 1553 1553 1553 1554 1554 1555 1555 1556 1556 1556 1557 1557 1557 1558 1558 1559 1560 1560 1560 1561 1561 1561 1561 1562 1562 1562 1562 1562 1563 1563 1563 1564 1564 1565 1565 1565 1565 1564 1564 1564 1563 1563 1563 1563 1563 1563 1562 1562 1562 1562 1561 1561 1561 1560 1560 1559 1559 1559 1558 1558 1557 1557 1557 1556 1556 1555 1555 1554 1553 1552 1551 1550 1549 1549 1548 1548 1548 1547 1547 1547
1553 1553 1553 1553 1554 1554 1554 1554 1555 1555 1556 1556 1557 1557 1557 1558 1558 1558 1558 1558 1559 1560 1560 1560 1560 1560 1561 1561 1561 1562 1562 1562 1562 1563 1563 1563 1563 1564 1564 1564 1564 1564 1564 1563 1563 1563 1562 1562 1561 1561 1561 1560 1560 1560 1559 1559 1559 1559 1558 1558 1557 1557 1557 1556 1555 1555 1555 1554 1554 1554 1553 1553 1552 1551 1550 1549 1548 1547 1546 1546 1545 1545 1544 1544 1544
1554 1554 1554 1554 1554 1555 1556 1556 1556 1556 1557 1558 1558 1558 1558 1559 1559 1559 1558 1558 1559 1560 1560 1560 1560 1560 1560 1561 1561 1561 1562 1562 1562 1562 1562 1562 1562 1562 1562 1562 1562 1562 1562 1561 1561 1561 1560 1560 1560 1559 1559 1558 1558 1558 1557 1557 1557 1556 1556 1555 1555 1555 1554 1554 1553 1553 1552 1552 1552 1552 1551 1551 1550 1549 1548 1547 1546 1545 1544 1544 1543 1542 1542 1541 1540
1554 1554 1555 1555 1555 1556 1557 1557 1557 1558 1558 1559 1559 1559 1559 1559 1559 1559 1559 1559 1559 1560 1560 1560 1560 1561 1561 1561 1561 1562 1562 1562 1562 1562 1562 1562 1562 1562 1562 1561 1561 1561 1560 1560 1560 1560 1560 1559 1559 1558 1558 1557 1556 1556 1556 1556 1556 1555 1554 1554 1554 1553 1552 1552 1552 1552 1551 1550 1550 1550 1549 1549 1548 1548 1547 1546 1545 1544 1543 1542 1541 1540 1539 1539 1538
1553 1554 1555 1555 1556 1557 1557 1558 1558 1559 1559 1559 1560 1560 1560 1560 1561 1561 1561 1560 1560 1561 1561 1561 1561 1561 1562 1562 1562 1562 1563 1563 1563 1562 1562 1562 1562 1562 1562 1562 1562 1561 1561 1561 1561 1560 1560 1559 1559 1558 1557 1557 1556 1555 1555 1554 1554 1554 1554 1554 1553 1553 1552 1550 1550 1551 1550 1549 1548 1548 1548 1548 1547 1547 1547 1546 1544 1543 1542 1540 1539 1538 1537 1537 1536
1553 1554 1554 1555 1556 1557 1557 1558 1559 1559 1560 1560 1561 1562 1562 1562 1562 1562 1563 1562 1561 1561 1561 1561 1562 1562 1562 1563 1563 1563 1563 1563 1563 1563 1563 1563 1562 1562 1562 1562 1562 1562 1562 1561 1561 1560 1560 1559 1559 1558 1558 1557 1556 1555 1554 1554 1553 1553 1553 1553 1552 1552 1552 1550 1548 1548 1547 1547 1547 1547 1547 1546 1546 1545 1545 1544 1543 1541 1540 1539 1537 1536 1535 1535 1534
1553 1553 1554 1555 1555 1556 1557 1557 1558 1559 1560 1561 1562 1563 1563 1564 1564 1564 1564 1563 1562 1562 1562 1562 1563 1563 1563 1563 1563 1564 1564 1563 1563 1563 1563 1563 1563 1562 1562 1562 1562 1562 1562 1561 1560 1560 1559 1559 1558 1558 1557 1556 1556 1555 1554 1554 1553 1552 1553 1553 1553 1553 1552 1550 1548 1547 1546 1546 1545 1544 1544 1543 1542 1542 1542 1542 1541 1539 1538 1537 1535 1534 1533 1532 1531
1553 1553 1554 1555 1556 1556 1557 1558 1559 1559 1560 1561 1562 1563 1564 1565 1565 1566 1565 1565 1564 1564 1564 1563 1563 1563 1564 1564 1564 1564 1565 1564 1564 1564 1564 1564 1563 1563 1563 1563 1562 1562 1562 1561 1561 1560 1560 1559 1558 1558 1557 1556 1556 1555 1554 1554 1553 1553 1552 1553 1554 1554 1552 1550 1549 1547 1544 1543 1543 1542 1541 1540 1539 1539 1539 1539 1538 1537 1536 1535 1533 1532 1531 1530 1529
1553 1553 1554 1555 1556 1557 1558 1558 1559 1559 1561 1562 1563 1564 1565 1566 1566 1567 1567 1566 1566 1565 1565 1565 1564 1564 1564 1565 1565 1565 1566 1565 1565 1565 1565 1564 1564 1564 1563 1563 1563 1562 1562 1562 1561 1561 1560 1559 1559 1558 1558 1557 1556 1555 1554 1554 1553 1553 1553 1553 1553 1553 1551 1550 1549 1547 1544 1541 1541 1540 1540 1539 1537 1536 1536 1536 1535 1535 1534 1533 1532 1531 1530 1529 1527
1552 1553 1554 1555 1556 1557 1558 1559 1559 1560 1561 1562 1564 1565 1566 1567 1568 1568 1568 1568 1567 1567 1567 1567 1566 1565 1565 1566 1566 1566 1566 1566 1566 1565 1565 1565 1565 1564 1564 1563 1563 1563 1563 1562 1561 1561 1561 1560 1560 1559 1558 1557 1556 1556 1555 1554 1553 1553 1552 1552 1552 1552 1551 1550 1549 1547 1545 1541 1539 1538 1537 1537 1536 1534 1534 1534 1533 1532 1531 1531 1531 1529 1529 1528 1526
1551 1551 1553 1554 1555 1556 1557 1558 1559 1560 1561 1562 1564 1566 1567 1568 1569 1569 1569 1568 1568 1568 1568 1568 1567 1567 1566 1566 1566 1566 1566 1566 1566 1566 1565 1565 1565 1564 1564 1564 1563 1563 1563 1562 1562 1561 1561 1560 1560 1559 1558 1557 1556 1556 1555 1554 1553 1552 1552 1552 1551 1551 1551 1550 1549 1547 1546 1542 1538 1536 1534 1533 1532 1532 1532 1532 1531 1531 1529 1529 1528 1527 1527 1526 1525
1550 1551 1552 1553 1554 1555 1556 1557 1558 1559 1560 1562 1564 1566 1568 1569 1570 1570 1570 1569 1568 1568 1568 1568 1568 1567 1567 1566 1566 1566 1566 1566 1566 1566 1566 1565 1565 1565 1564 1564 1563 1563 1563 1562 1562 1561 1561 1560 1559 1559 1558 1557 1556 1555 1555 1554 1553 1552 1551 1551 1550 1549 1549 1548 1547 1546 1544 1542 1539 1536 1533 1531 1529 1527 1528 1529 1529 1528 1528 1527 1526 1525 1524 1524 1523
1550 1551 1552 1553 1554 1555 1556 1557 1558 1558 1559 1561 1563 1565 1567 1569 1570 1570 1569 1569 1568 1568 1568 1568 1568 1568 1567 1567 1566 1566 1566 1566 1566 1566 1566 1565 1565 1565 1564 1564 1563 1563 1563 1562 1561 1561 1560 1560 1559 1559 1558 1557 1556 1555 1555 1554 1553 1552 1551 1550 1549 1548 1547 1546 1545 1544 1543 1541 1538 1534 1532 1531 1527 1525 1525 1525 1525 1525 1524 1524 1524 1523 1522 1521 1521